{"data":{"norad_id":57462,"epoch":"2026-09-20T20:46:16.995072Z","epoch_age_seconds":96392,"freshness":"FRESH","line1":"1 57462U 23107F   26263.86547448 -.00006712  00000+0 -23431-3 0  9995","line2":"2 57462  43.0048 314.1178 0001560 271.9856  88.0817 15.27620214174992","mean_motion":15.27620214,"eccentricity":0.000156,"inclination_deg":43.0048,"raan_deg":314.1178,"arg_perigee_deg":271.9856,"mean_anomaly_deg":88.0817,"bstar":-0.00023431,"rev_number":17499,"period_min":94.264267178648,"perigee_km":481.85835725169,"apogee_km":483.99900974494,"semimajor_km":6861.0656834983,"source":"CELESTRAK","updated_at":"2026-09-21T09:00:33.629658Z"}}